Weather History for Kalamazoo, MI

Change the Weather History Date:

Wednesday, January 30, 2013

  Actual Average Record
Temperature  
Mean Temperature 42 °F 24 °F  
Max Temperature 56 °F 31 °F 56 °F (2013)
Min Temperature 27 °F 18 °F -13 °F (1951)
Degree Days  
Heating Degree Days 23 40  
Month to date heating degree days 1105 1221  
Since 1 July heating degree days 3407 3672  
Cooling Degree Days 0 0  
Month to date cooling degree days 0 0  
Year to date cooling degree days 0 0  
Moisture  
Dew Point 43 °F    
Average Humidity 89    
Maximum Humidity 100    
Minimum Humidity 78    
Precipitation  
Precipitation 0.77 in 0.05 in 0.77 in (2013)
Month to date precipitation 3.38 1.73  
Year to date precipitation 3.38 1.73  
Sea Level Pressure  
Sea Level Pressure 29.30 in    
Wind  
Wind Speed 10 mph (WSW)    
Max Wind Speed 30 mph    
Max Gust Speed 37 mph    
Visibility 3 miles    
Events Fog , Rain , Snow    
T = Trace of Precipitation, MM = Missing Value Source: NWS Daily Summary

Daily Weather History Graph

Daily Weather History Graph

Search for Another Location

Airport:

Trip Planner

Search our weather history database for the weather conditions in past years. The results will help you decide how hot, cold, wet, or windy it might be!

Date:

Astronomy

Jan. 30, 2013 Rise Set
Actual Time 7:57 AM EST 5:54 PM EST
Civil Twilight 7:27 AM EST 6:24 PM EST
Nautical Twilight 6:53 AM EST 6:57 PM EST
Astronomical Twilight 6:20 AM EST 7:30 PM EST
Moon 9:58 PM EST (1/30) 9:19 AM EST (1/30)
Length of Visible Light 10h 56m
Length of Day
9h 57m
Waning Gibbous, 88% of the Moon is Illuminated
Jan 30
Waning Gibbous
Feb 3
Last Quarter
Feb 10
New
Feb 17
First Quarter
Feb 25
Full

Hourly Weather History & Observations

Time (EST) Temp. Windchill Dew Point Humidity Pressure Visibility Wind Dir Wind Speed Gust Speed Precip Events Conditions
12:00 AM 55.4 °F - 55.4 °F 100% 29.39 in 5.0 mi SW 5.8 mph - 0.00 in Rain Light Rain
12:07 AM 55.4 °F - 53.6 °F 94% 29.39 in 4.0 mi SW 8.1 mph - 0.01 in Rain Light Rain
12:12 AM 55.4 °F - 53.6 °F 94% 29.39 in 2.5 mi SSW 8.1 mph - 0.03 in Rain Rain
12:22 AM 55.4 °F - 53.6 °F 94% 29.38 in 3.0 mi SW 5.8 mph - 0.04 in Rain Light Rain
12:32 AM 55.4 °F - 53.6 °F 94% 29.38 in 2.0 mi WNW 6.9 mph - 0.08 in Rain Heavy Rain
12:42 AM 53.6 °F - 53.6 °F 100% 29.38 in 4.0 mi WNW 5.8 mph - 0.10 in Rain Light Rain
12:53 AM 54.0 °F - 53.1 °F 97% 29.39 in 2.0 mi NW 9.2 mph - 0.15 in Rain Rain
1:09 AM 53.6 °F - 53.6 °F 100% 29.38 in 2.5 mi West 8.1 mph - 0.07 in Rain Rain
1:15 AM 53.6 °F - 53.6 °F 100% 29.38 in 2.0 mi WNW 9.2 mph - 0.09 in Rain Heavy Rain
1:25 AM 53.6 °F - 51.8 °F 94% 29.38 in 2.0 mi WNW 10.4 mph - 0.15 in Rain Heavy Rain
1:36 AM 53.6 °F - 51.8 °F 94% 29.39 in 3.0 mi WNW 9.2 mph - 0.19 in Rain Heavy Rain
1:53 AM 53.1 °F - 52.0 °F 96% 29.39 in 4.0 mi WNW 9.2 mph - 0.24 in Rain Rain
2:53 AM 52.0 °F - 51.1 °F 97% 29.38 in 4.0 mi West 5.8 mph - 0.08 in Rain Rain
3:53 AM 51.1 °F - 50.0 °F 96% 29.34 in 3.0 mi South 4.6 mph - 0.10 in Rain Light Rain
4:06 AM 50.0 °F - 50.0 °F 100% 29.34 in 1.8 mi South 3.5 mph - 0.01 in Rain Rain
4:17 AM 50.0 °F - 50.0 °F 100% 29.34 in 0.8 mi SSW 3.5 mph - 0.03 in Rain Light Rain
4:27 AM 50.0 °F - 48.2 °F 94% 29.35 in 1.2 mi SSW 5.8 mph - 0.03 in Rain Light Rain
4:36 AM 50.0 °F - 50.0 °F 100% 29.35 in 3.0 mi WSW 4.6 mph - 0.04 in Rain Light Rain
4:53 AM 50.0 °F - 50.0 °F 100% 29.37 in 4.0 mi WSW 5.8 mph - 0.06 in Rain Light Rain
5:37 AM 51.8 °F - 50.0 °F 94% 29.33 in 5.0 mi SSE 4.6 mph - 0.06 in Rain Light Rain
5:49 AM 50.0 °F - 50.0 °F 100% 29.32 in 1.5 mi SSE 4.6 mph - 0.07 in Rain Light Rain
5:53 AM 50.0 °F - 50.0 °F 100% 29.32 in 1.0 mi SSE 5.8 mph - 0.07 in Rain Light Rain
5:57 AM 50.0 °F - 50.0 °F 100% 29.31 in 0.8 mi SSE 4.6 mph - 0.00 in Rain Light Rain
6:06 AM 50.0 °F - 48.2 °F 94% 29.30 in 0.2 mi SSE 4.6 mph - 0.00 in Fog , Rain Light Rain
6:26 AM 50.0 °F - 48.2 °F 94% 29.28 in 0.2 mi SE 5.8 mph - 0.00 in Fog Fog
6:53 AM 50.0 °F - 50.0 °F 100% 29.32 in 1.2 mi SSW 9.2 mph - 0.00 in   Overcast
6:56 AM 50.0 °F - 50.0 °F 100% 29.32 in 3.0 mi SSW 5.8 mph - N/A   Overcast
7:03 AM 50.0 °F - 50.0 °F 100% 29.29 in 2.0 mi SSW 4.6 mph - N/A   Overcast
7:11 AM 50.0 °F - 50.0 °F 100% 29.29 in 1.8 mi South 5.8 mph - N/A   Overcast
7:53 AM 50.0 °F - 50.0 °F 100% 29.28 in 0.2 mi South 4.6 mph - N/A Fog Fog
8:53 AM 50.0 °F - 50.0 °F 100% 29.28 in 0.2 mi SSW 5.8 mph - N/A Fog Fog
9:05 AM 50.0 °F - 50.0 °F 100% 29.31 in 3.0 mi SW 8.1 mph - N/A   Overcast
9:36 AM 48.2 °F - 48.2 °F 100% 29.32 in 2.0 mi West 10.4 mph - 0.00 in Rain Light Rain
9:44 AM 46.4 °F 41.9 °F 46.4 °F 100% 29.31 in 1.5 mi WNW 9.2 mph - 0.01 in Rain Light Rain
9:53 AM 46.0 °F 43.1 °F 46.0 °F 100% 29.31 in 1.8 mi West 5.8 mph - 0.01 in Rain Light Rain
10:53 AM 46.0 °F - 45.0 °F 96% 29.29 in 1.2 mi Calm Calm - 0.00 in   Overcast
11:13 AM 46.4 °F - 46.4 °F 100% 29.28 in 3.0 mi Calm Calm - N/A   Overcast
11:53 AM 46.9 °F - 46.0 °F 97% 29.27 in 1.2 mi South 3.5 mph - N/A   Overcast
12:53 PM 48.9 °F - 48.0 °F 97% 29.20 in 4.0 mi SSW 16.1 mph 20.7 mph N/A   Overcast
1:53 PM 50.0 °F - 48.9 °F 96% 29.19 in 1.8 mi SSW 15.0 mph 21.9 mph 0.01 in Rain Light Rain
2:03 PM 51.8 °F - 48.2 °F 88% 29.19 in 3.0 mi SSW 15.0 mph 25.3 mph 0.00 in Rain Light Rain
2:41 PM 51.8 °F - 46.4 °F 82% 29.16 in 4.0 mi SSW 13.8 mph - 0.00 in   Overcast
2:53 PM 51.1 °F - 46.9 °F 86% 29.15 in 4.0 mi SSW 13.8 mph - 0.00 in Rain Light Rain
3:27 PM 48.2 °F - 44.6 °F 87% 29.16 in 2.0 mi WSW 19.6 mph 27.6 mph 0.02 in Rain Rain
3:53 PM 46.9 °F - 42.1 °F 83% 29.16 in 8.0 mi SW 11.5 mph 23.0 mph 0.04 in Rain Light Rain
4:53 PM 46.9 °F - 42.1 °F 83% 29.16 in 9.0 mi SSW 16.1 mph 24.2 mph 0.00 in Rain Light Rain
5:30 PM 44.6 °F 37.8 °F 39.2 °F 81% 29.15 in 10.0 mi West 15.0 mph 20.7 mph 0.01 in   Overcast
5:51 PM 41.0 °F 33.1 °F 39.2 °F 93% 29.17 in 10.0 mi WSW 15.0 mph 26.5 mph 0.01 in   Overcast
5:53 PM 41.0 °F 33.1 °F 37.9 °F 89% 29.18 in 10.0 mi West 15.0 mph 26.5 mph 0.01 in   Overcast
6:41 PM 39.2 °F 31.2 °F 37.4 °F 93% 29.18 in 3.0 mi West 13.8 mph - 0.00 in Rain Light Rain
6:45 PM 37.4 °F 29.3 °F 35.6 °F 93% 29.19 in 3.0 mi West 12.7 mph - 0.00 in Rain Light Rain
6:50 PM 37.4 °F 30.3 °F 35.6 °F 93% 29.20 in 4.0 mi West 10.4 mph - 0.00 in Rain Light Rain
6:53 PM 37.9 °F 30.9 °F 36.0 °F 93% 29.21 in 6.0 mi West 10.4 mph - 0.00 in Rain Light Rain
7:27 PM 35.6 °F 27.1 °F 33.8 °F 93% 29.20 in 5.0 mi West 12.7 mph - 0.00 in Rain Light Rain
7:35 PM 35.6 °F 26.2 °F 33.8 °F 93% 29.21 in 5.0 mi West 15.0 mph 20.7 mph 0.00 in Rain Light Rain
7:53 PM 35.1 °F 26.4 °F 33.1 °F 92% 29.24 in 7.0 mi West 12.7 mph 20.7 mph 0.00 in   Overcast
8:23 PM 33.8 °F 23.5 °F 30.2 °F 87% 29.25 in 1.0 mi WNW 16.1 mph 25.3 mph 0.00 in Snow Light Snow
8:35 PM 32.0 °F 19.2 °F 28.4 °F 87% 29.26 in 2.0 mi WNW 23.0 mph 34.5 mph 0.00 in Snow Light Snow
8:43 PM 32.0 °F 19.5 °F 28.4 °F 87% 29.26 in 5.0 mi WNW 21.9 mph 32.2 mph 0.00 in Snow Light Snow
8:53 PM 32.0 °F 20.1 °F 28.0 °F 85% 29.28 in 3.0 mi WNW 19.6 mph 31.1 mph 0.00 in Snow Light Snow
9:53 PM 30.0 °F 18.3 °F 25.0 °F 82% 29.33 in 5.0 mi WNW 17.3 mph 29.9 mph 0.00 in Snow Light Snow
10:31 PM 28.4 °F 16.2 °F 24.8 °F 86% 29.34 in 4.0 mi WNW 17.3 mph 25.3 mph 0.00 in Snow Light Snow
10:38 PM 28.4 °F 16.2 °F 24.8 °F 86% 29.34 in 4.0 mi WNW 17.3 mph 24.2 mph 0.00 in Snow Light Snow
10:50 PM 28.4 °F 15.4 °F 24.8 °F 86% 29.35 in 2.5 mi WNW 19.6 mph 28.8 mph 0.00 in Snow Light Snow
10:53 PM 28.0 °F 15.3 °F 23.0 °F 81% 29.38 in 3.0 mi WNW 18.4 mph 28.8 mph 0.00 in Snow Light Snow
11:10 PM 26.6 °F 13.8 °F 21.2 °F 80% 29.36 in 7.0 mi WNW 17.3 mph 33.4 mph 0.00 in Snow Light Snow
11:27 PM 26.6 °F 14.3 °F 23.0 °F 86% 29.37 in 2.5 mi WNW 16.1 mph 21.9 mph 0.00 in Snow Light Snow
11:51 PM 26.6 °F 16.8 °F 23.0 °F 86% 29.39 in 1.2 mi WNW 10.4 mph 20.7 mph 0.00 in Snow Light Snow
11:53 PM 27.0 °F 16.7 °F 23.0 °F 85% 29.41 in 1.2 mi WNW 11.5 mph 20.7 mph 0.00 in Snow Light Snow